Flag for Equatorial Guinea Weather past 2 weeks in Malabo, Equatorial Guinea

Now
81 °F

Broken clouds.


Feels Like: 85 °F
Forecast: 75 / 82 °F
Wind: No wind

Location: Malabo/Fernando Poo

Current Time: Jul 6, 2015 at 11:27:06 AM

Latest Report: Jul 6, 2015 at 10:00 AM


Visibility: N/A

Pressure: 29.95 "Hg

Humidity: 79%

Dew point: 73 °F

Location of MalaboLocation

Historic Weather in Malabo — Graph

°F

Malabo temperature yesterday

Maximum temperature yesterday: 82 °F (at 3:00 PM)
Minimum temperature yesterday: 73 °F (at 6:00 AM)
Average temperature yesterday: 78 °F

Past Weeks' High & Low Weather Summary

 TemperatureHumidityPressure
High82 °F (Jun 23, 12:00 PM)94% (Jun 22, 11:00 PM)30.09 "Hg (Jun 22, 11:00 PM)
Low73 °F (Jul 5, 6:00 AM)74% (Jun 23, 12:00 PM)29.89 "Hg (Jul 2, 4:00 PM)
Average78 °F87%29.99 "Hg
* Reported Jun 22 8:00 PM — Jul 6 10:00 AM, Malabo, Weather by CustomWeather, © 2015

Note: Actual official high and low records may vary slightly from our data, if they occured in-between our weather recording intervals... More about our weather records

Advertising

Malabo weather history for previous 24 hours

 ConditionsComfort  
Time TempWeatherWind HumidityBarometerVisibility
10:00 AM
Mon, Jul 6
81 °FBroken clouds.No wind79%29.95 "HgN/A
8:00 AM77 °FThunderstorms. Broken clouds.No wind89%29.95 "HgN/A
7:00 AM75 °FBroken clouds.2 mph89%29.95 "HgN/A
6:00 AM75 °FPartly cloudy.5 mph89%29.92 "HgN/A
4:00 AM73 °FPassing clouds.No wind89%29.89 "HgN/A
3:00 AM73 °FPassing clouds.No wind94%29.89 "HgN/A
2:00 AM73 °FPassing clouds.No wind94%29.89 "HgN/A
1:00 AM73 °FPassing clouds.No wind94%29.92 "HgN/A
10:00 PM
Sun, Jul 5
77 °FPassing clouds.No wind89%29.95 "HgN/A
9:00 PM77 °FPassing clouds.7 mph89%29.92 "HgN/A
8:00 PM77 °FPassing clouds.9 mph89%29.89 "HgN/A
7:00 PM79 °FPassing clouds.8 mph84%29.89 "HgN/A
6:00 PM81 °FScattered clouds.5 mph84%29.89 "HgN/A
5:00 PM82 °FScattered clouds.6 mph79%29.89 "HgN/A
4:00 PM82 °FBroken clouds.10 mph79%29.89 "HgN/A
3:00 PM82 °FBroken clouds.7 mph74%29.89 "HgN/A
12:00 PM81 °FPartly sunny.7 mph79%29.95 "HgN/A
11:00 AM81 °FBroken clouds.No wind79%29.95 "HgN/A
Weather by CustomWeather, © 2015

See weather overviewHow to use our weather pages